This demonstration page uses our WeatherBlox Daily Observations layout. Learn more.

Left ArrowRight Arrow

39.08367, -84.50855

Hourly Observations for March 25, 2018

Temp ( °F °C ) Dew Point ( °F °C ) Humidity (%) Winds ( mph kmh ) Pressure ( in mb ) Visibility ( mi km ) Precip ( " mm )
12:53 am 00:53 Mostly Clear 36 2.2 28 -2.2 73 73 NE 13 20 30.16 1021 10 16.0934 0 0
1:53 am 01:53 Clear 35 1.7 25 -3.9 67 67 NE 15 24 30.18 1022 10 16.0934 0 0
2:53 am 02:53 Clear 34 1.1 20 -6.7 56 56 NE 14 22 30.19 1022 10 16.0934 0 0
3:53 am 03:53 Clear 32 0 19 -7.2 59 59 NE 15 24 30.19 1022 10 16.0934 0 0
4:53 am 04:53 Clear 32 0 17 -8.3 54 54 ENE 13 20 30.19 1022 10 16.0934 0 0
5:53 am 05:53 Clear 31 -0.6 17 -8.3 56 56 NE 14 22 30.21 1023 10 16.0934 0 0
6:53 am 06:53 Clear 30 -1.1 17 -8.3 58 58 NE 14 22 30.24 1024 10 16.0934 0 0
7:53 am 07:53 Sunny 29 -1.7 16 -8.9 58 58 ENE 15 24 30.27 1025 10 16.0934 0 0
8:53 am 08:53 Sunny 31 -0.6 16 -8.9 54 54 NE 17 28 30.29 1026 10 16.0934 0 0
9:53 am 09:53 Sunny 33 0.6 16 -8.9 49 49 NE 16 26 30.3 1026 10 16.0934 0 0
10:53 am 10:53 Sunny 35 1.7 17 -8.3 48 48 NE 13 20 30.29 1026 10 16.0934 0 0
11:53 am 11:53 Sunny 39 3.9 17 -8.3 41 41 ENE 15 24 30.29 1026 10 16.0934 0 0
12:53 pm 12:53 Sunny 43 6.1 19 -7.2 38 38 ENE 16 26 30.28 1026 10 16.0934 0 0
1:53 pm 13:53 Sunny 45 7.2 19 -7.2 35 35 ENE 16 26 30.27 1025 10 16.0934 0 0
2:53 pm 14:53 Sunny 48 8.9 16 -8.9 28 28 NE 16 26 30.25 1025 10 16.0934 0 0
3:53 pm 15:53 Sunny 48 8.9 17 -8.3 29 29 NE 13 20 30.24 1024 10 16.0934 0 0
4:53 pm 16:53 Sunny 48 8.9 16 -8.9 28 28 NE 15 24 30.23 1024 10 16.0934 0 0
5:53 pm 17:53 Sunny 48 8.9 16 -8.9 28 28 NE 16 26 30.24 1024 10 16.0934 0 0
6:53 pm 18:53 Sunny 48 8.9 14 -10 25 25 ENE 12 19 30.25 1025 10 16.0934 0 0
7:53 pm 19:53 Sunny 44 6.7 14 -10 30 30 NE 13 20 30.26 1025 10 16.0934 0 0
8:53 pm 20:53 Clear 41 5 16 -8.9 36 36 NE 12 19 30.27 1025 10 16.0934 0 0
9:53 pm 21:53 Clear 38 3.3 16 -8.9 41 41 NE 8 13 30.29 1026 10 16.0934 0 0
10:53 pm 22:53 Clear 36 2.2 16 -8.9 44 44 NE 8 13 30.28 1026 10 16.0934 0 0
11:53 pm 23:53 Clear 35 1.7 15 -9.4 44 44 NE 7 11 30.28 1026 10 16.0934 0 0

Powered by AerisWeather